loading
|
DECAYED

OBJECT E, 57428 (Decayed)

Orbit data source: Space-Track

OBJECT E, 57428 was a satellite owned by CNSA (CN) in LEO that was launched on Sun, 23 Jul 2023 UTC launched from the Taiyaun Space Center, China (TSC). Unknown objects in Earth's orbit typically refer to objects detected orbiting the Earth but have not yet been identified or cataloged. These objects could be anything from previously untracked satellites, spent rocket stages, debris from satellite collisions, or even natural meteoroids temporarily captured by Earth's gravity. This object's orbit decayed before it could be identified.

Next visibility unknown
No 3D visualization available: RSO Decayed
OBJECT E details
Identifier
57428, 2023-104E
Orbit
Decayed
Last TLE update5 months ago
Origin
Flag of CNCNSA (CN / PRC)
ManufacturerCAST
MissionDecayed spacecraft
Bus & MotorUnknown bus, Unknown motor
MassUnknown
Launch date (UTC)
2023-07-23 (1 year ago)
Launch vehicleUnknown
Launch site
Taiyaun Space Center, China (TSC)
Object typeUnknown
Shape & HBRUnknown
Radar Cross SectionMedium (>0.1 m² and <1 m²)

Expand to show TLE details & history

TLE from 5 months ago
0 OBJECT E
1 57428U 23104E   24121.47672315  .14555776  25151-5  63075-3 0  9994
2 57428  97.3282 196.6327 0015068 270.3772  89.5802 16.41890573 43554
Epoch: 2024-04-30T11:26Z
Definitive object data (Epoch: 2024-04-30T11:26:28.88Z)
Latitude
Longitude166.11217°
Altitude163.977 km
Speed7.808 km/s
True Right ascension13h 06m 31s
True Declination0° 00' 00"
Sunlit
Object was in full shadow at TLE epoch
Predictive object data (real-time)
LatitudeUnknown
LongitudeUnknown
AltitudeUnknown
SpeedUnknown
Apparent Right ascensionUnknown
Apparent DeclinationUnknown
SunlitUnknown
Predictive observer data (real-time)
Local Sidereal Time15:40:42
AzimuthUnknown
ElevationUnknown
Doppler factorUnknown
Orbital elements
Apogee167.428 km
Perigee147.732 km
Semi-major axis6,535.717 km
Eccentricity0.0015068
Inclination97.3282°
RAAN196.6327°
Arg. of periapsis270.3772°
True anomaly89.75286°
Mean anomaly89.5802°
Eccentric anomaly89.66653°
Mean motion4.10774 °/min
BSTAR0.00063075
Period87.64 mins
No data available
No data available

OBJECT E Visibility forecast

Observer location: 39.9160978°, -105.1181434

This satellite is decayed
Span
Click to sort rows by Start time (UTC) header in descending order
Start Az.
Max El. time (UTC)
Max El. Az.
Max El.
End time (UTC)
End Az.